sat.trackr.live / text

‹ back to catalog

STARLINK-37195

NORAD 68662 · 2026-077A

PAYLOAD ACTIVE UNKNOWN

§ Identity

Operator
Country
US
Launch date
2026-04-11
Launch site
AFWTR
Launch vehicle
Mass (kg)
RCS (m²)

Purposes: comms

External: N2YO · Heavens-Above · Gunter

§ Orbital elements

Epoch: 2026-09-19T21:10:15.162816Z

Period
93.91 min
Inclination
97.2849°
Eccentricity
0.0001890
Mean motion
15.33447919 rev/d
Perigee alt
464.2 km
Apogee alt
466.8 km
Semi-major
6,843.7 km
B*
3.4767e-4
RAAN
132.7142°
Arg perigee
91.1155°
Mean anomaly
269.0304°
Rev number
2,491

§ Raw data

STARLINK-371951 68662U 26077A   26262.88211994  .00011167  00000+0  34767-3 0  99952 68662  97.2849 132.7142 0001890  91.1155 269.0304 15.33447919 24915

JSON: /api/v1/satellites/68662 · /tle

For live sub-satellite position, see the globe view (requires WebGL).

§ Visibility from observer

Set your observer location to see the next 7 days of passes ≥ 10°. The values pass through the URL so the page stays shareable.

No JS? Fill the form by hand. The geolocation button needs JavaScript.